Regional Weather Roundup
Issued by NWS Cleveland, OH

Home | Current Version | Previous Version | Graphics & Text | Print | Product List | Glossary On
Versions: 1 2 3 4 5 6 7 8 9 10 11 12 13 14 15 16 17 18 19 20 21 22 23 24 25 26 27 28 29 30 31 32 33 34 35 36 37 38 39 40 41 42 43 44 45 46 47 48 49 50
000
ASUS41 KCLE 261400
RWRCLE
OHIO REGIONAL WEATHER ROUNDUP
NATIONAL WEATHER SERVICE WILMINGTON, OH
1000 AM EDT MON JUN 26 2017

NOTE: "FAIR" INDICATES FEW OR NO CLOUDS BELOW 12,000 FEET WITH NO
SIGNIFICANT WEATHER AND/OR OBSTRUCTIONS TO VISIBILITY.

OHZ001>008-015>018-024>027-034-035-043-044-261500-
   NORTHWEST OHIO

CITY           SKY/WX    TMP DP  RH WIND       PRES   REMARKS
DEFIANCE       FAIR      63  50  62 W9G20     30.10S
FINDLAY        FAIR      65  51  60 W15       30.09S
TOLEDO EXPRESS PTSUNNY   64  52  64 W12       30.08S
TOLEDO EXEC    FAIR      65  53  65 W16G22    30.08S
LIMA           PTSUNNY   63  52  67 NW14      30.12R
$$

OHZ009>014-019>023-028>033-038-089-261500-
   NORTHEAST OHIO

CITY           SKY/WX    TMP DP  RH WIND       PRES   REMARKS
CLE-HOPKINS    FAIR      68  54  60 W9        30.07F
CLE-LAKEFRONT  FAIR      67  54  63 W13       30.04S
CUY CO. ARPT   MOSUNNY   68  52  56 W9        30.05S
LORAIN-ELYRIA  FAIR      64  50  60 W14       30.07S
ASHTABULA      LGT RAIN  57  52  83 NW6       30.07R
AKRON-CANTON   FAIR      66  49  54 SW10      30.07F
WOOSTER        NOT AVBL
MANSFIELD      FAIR      63  53  70 W8        30.09S
YOUNGSTOWN     FAIR      66  49  54 SW7       30.06S
$$

OHZ042-051>053-060>062-070>072-077>081-261500-
  SOUTHWEST OHIO

CITY           SKY/WX    TMP DP  RH WIND       PRES   REMARKS
CINC-COVINGTON FAIR      65  52  62 SW7       30.18R
CINC-LUNKEN    FAIR      68  52  56 W9        30.17S
HAMILTON       FAIR      67  53  61 NW8       30.17S
DAYTON         NOT AVBL
WRIGHT-PAT AFB FAIR      65  52  63 W15G21    30.14S
DAYTON GENERAL FAIR      65  51  60 W10G17    30.15S
WILMINGTON     FAIR      64  52  64 W15       30.15S
$$

OHZ036-037-039>041-045>050-054>059-063>069-073>076-082>088-261500-
  CENTRAL AND SOUTHEAST OHIO

CITY           SKY/WX    TMP DP  RH WIND       PRES   REMARKS
COLUMBUS       FAIR      66  52  60 W12       30.11S
OSU AIRPORT    FAIR      65  55  70 W9        30.12S
BOLTON FIELD   SUNNY     64  54  68 NW10      30.13S
RICKENBACK AFB NOT AVBL
NEWARK         FAIR      68  48  48 W12       30.10F
MARION         FAIR      65  52  62 W10       30.11S
LANCASTER      FAIR      65  52  62 NW9       30.13S
ZANESVILLE     FAIR      67  53  61 VRB6      30.11F
NEW PHILLY     FAIR      66  52  60 W6        30.10S
$$



USA.gov is the U.S. government's official web portal to all federal, state and local government web resources and services.